Radiation Dose measured at exhaust stack monitor of Fukushima Daiichi Nuclear Power Station
Date,Time,Unit 5 6 shared exhaust cylinders,Wind Direction,Wind Velocity(m/s)
2022/11/03,00:00,3.7,south-southwest,1.7
2022/11/03,00:10,3.7,southwest,2.0
2022/11/03,00:20,3.8,southwest,1.7
2022/11/03,00:30,3.6,south-southwest,1.7
2022/11/03,00:40,3.6,southwest,1.4
2022/11/03,00:50,3.7,west-southwest,1.4
2022/11/03,01:00,3.7,west,1.5
2022/11/03,01:10,3.7,west,1.5
2022/11/03,01:20,3.7,west-southwest,1.2
2022/11/03,01:30,3.7,southwest,1.9
2022/11/03,01:40,3.7,southwest,2.5
2022/11/03,01:50,3.9,southwest,2.6
2022/11/03,02:00,3.8,west-southwest,2.3
2022/11/03,02:10,3.7,west-southwest,2.0
2022/11/03,02:20,3.6,southwest,2.2
2022/11/03,02:30,3.7,south-southwest,2.3
2022/11/03,02:40,3.8,south-southwest,2.3
2022/11/03,02:50,3.7,south-southwest,2.0
2022/11/03,03:00,3.7,south-southwest,2.8
2022/11/03,03:10,3.6,south-southwest,3.2
2022/11/03,03:20,3.6,southwest,4.0
2022/11/03,03:30,3.8,southwest,3.6
2022/11/03,03:40,3.5,southwest,2.6
2022/11/03,03:50,3.7,west-southwest,3.0
2022/11/03,04:00,3.9,southwest,3.4
2022/11/03,04:10,3.7,southwest,3.4
2022/11/03,04:20,3.8,southwest,2.6
2022/11/03,04:30,3.7,south-southwest,3.0
2022/11/03,04:40,3.7,southwest,3.7
2022/11/03,04:50,3.7,southwest,2.8
2022/11/03,05:00,3.8,south-southwest,3.3
2022/11/03,05:10,3.9,south-southwest,3.3
2022/11/03,05:20,3.6,southwest,3.0
2022/11/03,05:30,3.8,southwest,2.6
2022/11/03,05:40,3.8,southwest,2.6
2022/11/03,05:50,3.9,west-southwest,1.7
2022/11/03,06:00,3.7,northwest,2.3
2022/11/03,06:10,3.7,northwest,2.6
2022/11/03,06:20,3.6,northwest,2.0
2022/11/03,06:30,3.7,north-northwest,2.3
2022/11/03,06:40,3.6,north,2.5
2022/11/03,06:50,3.7,north-northeast,2.0
2022/11/03,07:00,3.7,north-northeast,1.7
2022/11/03,07:10,3.8,north,2.2
2022/11/03,07:20,3.7,north-northwest,2.2
2022/11/03,07:30,3.7,north-northwest,2.2
2022/11/03,07:40,3.7,north-northwest,2.6
2022/11/03,07:50,3.8,north-northwest,1.5
2022/11/03,08:00,3.8,northwest,1.1
2022/11/03,08:10,3.7,north,0.6
2022/11/03,08:20,3.7,east-northeast,1.1
2022/11/03,08:30,3.6,east-southeast,0.6
2022/11/03,08:40,3.6,southeast,1.2
2022/11/03,08:50,3.8,south-southeast,1.7
2022/11/03,09:00,3.6,south,2.0
2022/11/03,09:10,3.7,southeast,1.7
2022/11/03,09:20,3.9,south-southeast,1.2
2022/11/03,09:30,3.7,southeast,1.1
2022/11/03,09:40,3.7,south-southeast,1.2
2022/11/03,09:50,3.8,southeast,2.6
2022/11/03,10:00,3.7,east-southeast,3.8
2022/11/03,10:10,3.8,southeast,4.0
2022/11/03,10:20,3.8,southeast,4.1
2022/11/03,10:30,3.7,southeast,3.2
2022/11/03,10:40,3.9,south-southeast,4.8
2022/11/03,10:50,3.7,south-southeast,5.2
2022/11/03,11:00,3.7,south-southeast,5.6
2022/11/03,11:10,3.8,south-southeast,4.7
2022/11/03,11:20,3.6,south,5.5
2022/11/03,11:30,3.7,south-southeast,5.3
2022/11/03,11:40,3.6,south-southeast,7.8
2022/11/03,11:50,3.7,south-southeast,7.3
2022/11/03,12:00,3.6,south,6.4
2022/11/03,12:10,3.6,south-southeast,8.1
2022/11/03,12:20,3.8,south-southeast,7.6
2022/11/03,12:30,3.7,south-southeast,8.2
2022/11/03,12:40,3.8,south-southeast,7.5
2022/11/03,12:50,3.7,south-southeast,8.7
2022/11/03,13:00,3.6,south-southeast,7.4
2022/11/03,13:10,3.7,south-southeast,9.1
2022/11/03,13:20,3.7,south-southeast,6.1
2022/11/03,13:30,3.7,south-southeast,6.2
2022/11/03,13:40,3.6,south-southeast,6.3
2022/11/03,13:50,3.8,south-southwest,5.1
2022/11/03,14:00,3.9,south,4.9
2022/11/03,14:10,3.7,south,5.8
2022/11/03,14:20,3.8,south,4.7
2022/11/03,14:30,3.7,south,3.3
2022/11/03,14:40,3.8,south-southwest,2.0
2022/11/03,14:50,3.8,west,2.5
2022/11/03,15:00,3.7,west,4.6
2022/11/03,15:10,3.6,west,3.1
2022/11/03,15:20,3.8,west,2.5
2022/11/03,15:30,3.8,west,3.1
2022/11/03,15:40,3.6,west-northwest,3.9
2022/11/03,15:50,3.7,west,2.2
2022/11/03,16:00,3.8,west,3.6
2022/11/03,16:10,3.7,west-northwest,3.9
2022/11/03,16:20,3.8,west,3.3
2022/11/03,16:30,3.6,west,4.8
2022/11/03,16:40,3.7,west-northwest,4.6
2022/11/03,16:50,3.7,west-northwest,3.2
2022/11/03,17:00,3.7,west,3.0
2022/11/03,17:10,3.5,west-northwest,3.2
2022/11/03,17:20,3.6,west-northwest,3.4
2022/11/03,17:30,3.8,west,3.5
2022/11/03,17:40,3.7,west-northwest,4.7
2022/11/03,17:50,3.7,west-northwest,6.1
2022/11/03,18:00,3.7,west-northwest,7.2
2022/11/03,18:10,3.8,west,7.0
2022/11/03,18:20,3.9,west,7.4
2022/11/03,18:30,3.8,west,7.2
2022/11/03,18:40,3.7,west-southwest,5.2
2022/11/03,18:50,3.8,west-southwest,5.2
2022/11/03,19:00,3.7,west-southwest,6.4
2022/11/03,19:10,3.7,west-southwest,6.4
2022/11/03,19:20,3.8,west,7.7
2022/11/03,19:30,3.7,west,7.6
2022/11/03,19:40,3.7,west,7.8
2022/11/03,19:50,3.5,west,5.9
2022/11/03,20:00,3.7,west,3.5
2022/11/03,20:10,3.7,west-northwest,1.9
2022/11/03,20:20,3.6,west,4.4
2022/11/03,20:30,3.8,west-southwest,5.0
2022/11/03,20:40,3.8,west-southwest,4.8
2022/11/03,20:50,3.7,west,4.9
2022/11/03,21:00,3.7,west-southwest,5.3
2022/11/03,21:10,3.7,west,6.3
2022/11/03,21:20,3.5,west,5.3
2022/11/03,21:30,3.6,west,3.5
2022/11/03,21:40,3.7,west-southwest,2.6
2022/11/03,21:50,3.8,west,3.2
2022/11/03,22:00,3.8,west,2.6
2022/11/03,22:10,3.7,west,4.6
2022/11/03,22:20,3.7,west,6.2
2022/11/03,22:30,3.6,west,6.6
2022/11/03,22:40,3.6,west,5.3
2022/11/03,22:50,3.6,west,7.9
2022/11/03,23:00,3.7,west,8.1
2022/11/03,23:10,3.5,west,6.6
2022/11/03,23:20,3.9,west,8.3
2022/11/03,23:30,3.7,west,8.2
2022/11/03,23:40,3.7,west,6.8
2022/11/03,23:50,3.7,west,7.2
